Weather History for KVAD - February, 2013

Change the Weather History Date:

Saturday, February 16, 2013

  Actual Average Record
Temperature  
Mean Temperature 44 °F -  
Max Temperature 52 °F 65 °F 80 °F (2000)
Min Temperature 34 °F 45 °F 30 °F (2007)
Degree Days  
Heating Degree Days 20    
Moisture  
Dew Point 34 °F    
Average Humidity 67    
Maximum Humidity 93    
Minimum Humidity 32    
Precipitation  
Precipitation 0.02 in - - ()
Sea Level Pressure  
Sea Level Pressure 30.02 in    
Wind  
Wind Speed 7 mph (WNW)    
Max Wind Speed 22 mph    
Max Gust Speed 31 mph    
Visibility 10 miles    
Events Rain    
Averages and records for this station are not official NWS values.
T = Trace of Precipitation, MM = Missing Value Source: NWS Daily Summary

Daily Weather History Graph

Daily Weather History Graph

Search for Another Location

Airport or City:

Trip Planner

Search our weather history database for the weather conditions in past years. The results will help you decide how hot, cold, wet, or windy it might be!

Date:

Astronomy

Feb. 16, 2013 Rise Set
Actual Time 7:12 AM EST 6:21 PM EST
Civil Twilight 6:47 AM EST 6:46 PM EST
Nautical Twilight 6:19 AM EST 7:14 PM EST
Astronomical Twilight 5:51 AM EST 7:42 PM EST
Moon 10:53 AM EST (2/16) No Moon Set
Length of Visible Light 11h 58m
Length of Day
11h 08m
Waxing Crescent, 39% of the Moon is Illuminated
Feb 16
Waxing Crescent
Feb 17
First Quarter
Feb 25
Full
Mar 4
Last Quarter
Mar 11
New

Hourly Weather History & Observations

Time (EST) Temp. Windchill Dew Point Humidity Pressure Visibility Wind Dir Wind Speed Gust Speed Precip Events Conditions
12:58 AM 43.3 °F - 40.3 °F 89% 30.01 in 10.0 mi Calm Calm - N/A   Clear
1:58 AM 43.0 °F 41.3 °F 41.0 °F 93% 30.00 in 10.0 mi WSW 3.5 mph - N/A   Clear
2:58 AM 45.1 °F - 38.8 °F 79% 29.97 in 10.0 mi South 1.2 mph - N/A   Partly Cloudy
3:58 AM 45.5 °F - 39.7 °F 80% 29.96 in 10.0 mi Variable 1.2 mph - N/A   Clear
4:58 AM 46.2 °F - 39.7 °F 78% 29.96 in 10.0 mi West 1.2 mph - N/A   Clear
5:58 AM 44.4 °F 42.9 °F 40.6 °F 87% 29.96 in 10.0 mi NW 3.5 mph - N/A   Clear
6:58 AM 43.7 °F 39.7 °F 40.5 °F 88% 29.97 in 10.0 mi NW 6.9 mph - N/A   Clear
7:58 AM 45.0 °F 43.5 °F 41.2 °F 87% 29.98 in 10.0 mi WNW 3.5 mph - N/A   Clear
8:58 AM 46.0 °F 39.6 °F 40.1 °F 80% 30.00 in 10.0 mi NW 15.0 mph 21.9 mph N/A   Partly Cloudy
9:58 AM 48.6 °F - 37.0 °F 64% 30.03 in 10.0 mi NW 21.9 mph 27.6 mph N/A   Mostly Cloudy
10:26 AM 48.2 °F - 37.4 °F 66% 30.04 in 10.0 mi NW 21.9 mph 31.1 mph N/A Rain Light Rain
10:58 AM 44.2 °F 37.0 °F 38.7 °F 81% 30.07 in 10.0 mi NNW 16.1 mph 21.9 mph 0.00 in Rain Light Rain
11:58 AM 42.1 °F 39.2 °F 39.0 °F 89% 30.04 in 10.0 mi WNW 4.6 mph - 0.01 in Rain Light Rain
12:02 PM 42.8 °F 39.3 °F 39.2 °F 87% 30.03 in 10.0 mi WNW 5.8 mph - N/A   Overcast
12:58 PM 44.8 °F 42.4 °F 39.4 °F 81% 30.02 in 10.0 mi West 4.6 mph - 0.00 in   Overcast
1:58 PM 49.1 °F - 39.0 °F 68% 29.98 in 10.0 mi West 10.4 mph - N/A   Mostly Cloudy
2:10 PM 50.0 °F - 39.2 °F 66% 29.96 in 10.0 mi WSW 12.7 mph - N/A Rain Light Rain
2:22 PM 48.2 °F - 41.0 °F 76% 29.98 in 9.0 mi WNW 20.7 mph 31.1 mph N/A Rain Light Rain
2:37 PM 46.4 °F 42.4 °F 41.0 °F 81% 29.97 in 10.0 mi WNW 8.1 mph - N/A   Mostly Cloudy
2:58 PM 49.8 °F - 41.0 °F 72% 29.97 in 10.0 mi West 8.1 mph - 0.01 in   Scattered Clouds
3:58 PM 52.9 °F - 30.6 °F 43% 29.96 in 10.0 mi WNW 13.8 mph 26.5 mph N/A   Scattered Clouds
4:58 PM 51.1 °F - 26.6 °F 39% 29.98 in 10.0 mi WNW 18.4 mph 28.8 mph N/A   Scattered Clouds
5:58 PM 48.6 °F - 20.5 °F 33% 30.01 in 10.0 mi WNW 16.1 mph 31.1 mph N/A   Mostly Cloudy
6:58 PM 45.7 °F 38.8 °F 17.4 °F 32% 30.05 in 10.0 mi WNW 16.1 mph 24.2 mph N/A   Partly Cloudy
7:58 PM 43.2 °F 36.6 °F 16.3 °F 34% 30.08 in 10.0 mi NW 12.7 mph - N/A   Clear
8:58 PM 41.0 °F 34.3 °F 16.9 °F 38% 30.12 in 10.0 mi NW 11.5 mph - N/A   Clear
9:58 PM 39.0 °F 32.3 °F 17.6 °F 42% 30.15 in 10.0 mi NW 10.4 mph - N/A   Clear
10:58 PM 37.8 °F 32.5 °F 16.9 °F 43% 30.18 in 10.0 mi NW 6.9 mph - N/A   Clear
11:58 PM 34.7 °F 28.8 °F 18.5 °F 52% 30.19 in 10.0 mi WNW 6.9 mph - N/A   Clear